User: anonymous   Login
Location: Unspecified
(0.0000°N, 0.0000°E)
Time: 06:48:59
(UTC+00:00)
Language:

PAKSAT 1R - Orbit

View from above orbital plane
View from above orbital plane
View from above satellite
View from above satellite

Ground track
Ground track

The orbit data is extracted from the following two-line orbital elements,

1 37779U 11042A   16337.88807623  .00000163  00000-0  00000+0 0  9992
2 37779   0.0054 140.6494 0002712 126.8193 162.3781  1.00271634 19354
Epoch (UTC): 02 December 2016 21:18:49
Eccentricity: 0.0002712
inclination: 0.0054°
perigee height: 35775 km
apogee height: 35797 km
right ascension of ascending node: 140.6494°
argument of perigee: 126.8193°
revolutions per day: 1.00271634
mean anomaly at epoch: 162.3781°
orbit number at epoch: 1935

The dashed part of the orbit path shows where the satellite is in the earth's shadow,  

DLR